owner,sensor,date,latitude,longitude,vertical_datum,sea_water_practical_salinity,qcFlag 
TCOON,ioos:station:TCOON:127:1,2017-07-01T00:30:00Z,28.2598,-96.7737,0.0,12.5,1111122 
TCOON,ioos:station:TCOON:127:1,2017-07-01T01:30:00Z,28.2598,-96.7737,0.0,12.7,1111122 
TCOON,ioos:station:TCOON:127:1,2017-07-01T02:30:00Z,28.2598,-96.7737,0.0,12.9,1111122 
TCOON,ioos:station:TCOON:127:1,2017-07-01T03:30:00Z,28.2598,-96.7737,0.0,12.9,1111122 
TCOON,ioos:station:TCOON:127:1,2017-07-01T04:30:00Z,28.2598,-96.7737,0.0,12.9,1111122 
TCOON,ioos:station:TCOON:127:1,2017-07-01T05:30:00Z,28.2598,-96.7737,0.0,12.4,1111122 
TCOON,ioos:station:TCOON:127:1,2017-07-01T06:30:00Z,28.2598,-96.7737,0.0,12.2,1111122 
TCOON,ioos:station:TCOON:127:1,2017-07-01T07:30:00Z,28.2598,-96.7737,0.0,12.3,1111122 
TCOON,ioos:station:TCOON:127:1,2017-07-01T08:30:00Z,28.2598,-96.7737,0.0,12.4,1111122 
TCOON,ioos:station:TCOON:127:1,2017-07-01T09:30:00Z,28.2598,-96.7737,0.0,12.1,1111122 
TCOON,ioos:station:TCOON:127:1,2017-07-01T10:30:00Z,28.2598,-96.7737,0.0,12.2,1111122 
TCOON,ioos:station:TCOON:127:1,2017-07-01T11:30:00Z,28.2598,-96.7737,0.0,11.9,1111122 
TCOON,ioos:station:TCOON:127:1,2017-07-01T12:30:00Z,28.2598,-96.7737,0.0,12.2,1111122 
TCOON,ioos:station:TCOON:127:1,2017-07-01T13:30:00Z,28.2598,-96.7737,0.0,12.3,1111122 
TCOON,ioos:station:TCOON:127:1,2017-07-01T14:30:00Z,28.2598,-96.7737,0.0,12.2,1111122 
TCOON,ioos:station:TCOON:127:1,2017-07-01T15:30:00Z,28.2598,-96.7737,0.0,12.0,1111122 
TCOON,ioos:station:TCOON:127:1,2017-07-01T16:30:00Z,28.2598,-96.7737,0.0,12.1,1111122 
TCOON,ioos:station:TCOON:127:1,2017-07-01T17:30:00Z,28.2598,-96.7737,0.0,12.2,1111122 
TCOON,ioos:station:TCOON:127:1,2017-07-01T18:30:00Z,28.2598,-96.7737,0.0,12.2,1111122 
TCOON,ioos:station:TCOON:127:1,2017-07-01T19:30:00Z,28.2598,-96.7737,0.0,12.4,1111122 
TCOON,ioos:station:TCOON:127:1,2017-07-01T20:30:00Z,28.2598,-96.7737,0.0,10.8,1111122 
TCOON,ioos:station:TCOON:127:1,2017-07-01T21:30:00Z,28.2598,-96.7737,0.0,11.9,1111122 
TCOON,ioos:station:TCOON:127:1,2017-07-01T22:30:00Z,28.2598,-96.7737,0.0,12.2,1111122 
TCOON,ioos:station:TCOON:127:1,2017-07-01T23:30:00Z,28.2598,-96.7737,0.0,12.9,1111122 
TCOON,ioos:station:TCOON:127:1,2017-07-02T00:30:00Z,28.2598,-96.7737,0.0,12.6,1111122 
TCOON,ioos:station:TCOON:127:1,2017-07-02T01:30:00Z,28.2598,-96.7737,0.0,11.9,1111122 
TCOON,ioos:station:TCOON:127:1,2017-07-02T02:30:00Z,28.2598,-96.7737,0.0,12.2,1111122 
TCOON,ioos:station:TCOON:127:1,2017-07-02T03:30:00Z,28.2598,-96.7737,0.0,12.0,1111122 
TCOON,ioos:station:TCOON:127:1,2017-07-02T04:30:00Z,28.2598,-96.7737,0.0,11.9,1111122 
TCOON,ioos:station:TCOON:127:1,2017-07-02T05:30:00Z,28.2598,-96.7737,0.0,11.4,1111122 
TCOON,ioos:station:TCOON:127:1,2017-07-02T06:30:00Z,28.2598,-96.7737,0.0,11.1,1111122 
TCOON,ioos:station:TCOON:127:1,2017-07-02T07:30:00Z,28.2598,-96.7737,0.0,11.3,1111122 
TCOON,ioos:station:TCOON:127:1,2017-07-02T08:30:00Z,28.2598,-96.7737,0.0,11.4,1111122 
TCOON,ioos:station:TCOON:127:1,2017-07-02T09:30:00Z,28.2598,-96.7737,0.0,11.6,1111122 
TCOON,ioos:station:TCOON:127:1,2017-07-02T10:30:00Z,28.2598,-96.7737,0.0,11.7,1111122 
TCOON,ioos:station:TCOON:127:1,2017-07-02T11:30:00Z,28.2598,-96.7737,0.0,11.8,1111122 
TCOON,ioos:station:TCOON:127:1,2017-07-02T12:30:00Z,28.2598,-96.7737,0.0,11.5,1111122 
TCOON,ioos:station:TCOON:127:1,2017-07-02T13:30:00Z,28.2598,-96.7737,0.0,11.7,1111122 
TCOON,ioos:station:TCOON:127:1,2017-07-02T14:30:00Z,28.2598,-96.7737,0.0,11.8,1111122 
TCOON,ioos:station:TCOON:127:1,2017-07-02T15:30:00Z,28.2598,-96.7737,0.0,11.8,1111122 
TCOON,ioos:station:TCOON:127:1,2017-07-02T16:30:00Z,28.2598,-96.7737,0.0,11.9,1111122 
TCOON,ioos:station:TCOON:127:1,2017-07-02T17:30:00Z,28.2598,-96.7737,0.0,11.9,1111122 
TCOON,ioos:station:TCOON:127:1,2017-07-02T18:30:00Z,28.2598,-96.7737,0.0,12.0,1111122 
TCOON,ioos:station:TCOON:127:1,2017-07-02T19:30:00Z,28.2598,-96.7737,0.0,11.9,1111122 
TCOON,ioos:station:TCOON:127:1,2017-07-02T20:30:00Z,28.2598,-96.7737,0.0,12.4,1111122 
TCOON,ioos:station:TCOON:127:1,2017-07-02T21:30:00Z,28.2598,-96.7737,0.0,12.6,1111122 
TCOON,ioos:station:TCOON:127:1,2017-07-02T22:30:00Z,28.2598,-96.7737,0.0,12.2,1111122 
TCOON,ioos:station:TCOON:127:1,2017-07-02T23:30:00Z,28.2598,-96.7737,0.0,12.5,1111122 
TCOON,ioos:station:TCOON:127:1,2017-07-03T00:30:00Z,28.2598,-96.7737,0.0,12.8,1111122 
TCOON,ioos:station:TCOON:127:1,2017-07-03T01:30:00Z,28.2598,-96.7737,0.0,13.2,1111122 
TCOON,ioos:station:TCOON:127:1,2017-07-03T02:30:00Z,28.2598,-96.7737,0.0,13.4,1111122 
TCOON,ioos:station:TCOON:127:1,2017-07-03T03:30:00Z,28.2598,-96.7737,0.0,13.3,1111122 
TCOON,ioos:station:TCOON:127:1,2017-07-03T04:30:00Z,28.2598,-96.7737,0.0,12.6,1111122 
TCOON,ioos:station:TCOON:127:1,2017-07-03T05:30:00Z,28.2598,-96.7737,0.0,12.7,1111122 
TCOON,ioos:station:TCOON:127:1,2017-07-03T06:30:00Z,28.2598,-96.7737,0.0,12.9,1111122 
TCOON,ioos:station:TCOON:127:1,2017-07-03T07:30:00Z,28.2598,-96.7737,0.0,13.0,1111122 
TCOON,ioos:station:TCOON:127:1,2017-07-03T08:30:00Z,28.2598,-96.7737,0.0,13.2,1111122 
TCOON,ioos:station:TCOON:127:1,2017-07-03T09:30:00Z,28.2598,-96.7737,0.0,13.0,1111122 
TCOON,ioos:station:TCOON:127:1,2017-07-03T10:30:00Z,28.2598,-96.7737,0.0,12.8,1111122 
TCOON,ioos:station:TCOON:127:1,2017-07-03T11:30:00Z,28.2598,-96.7737,0.0,11.5,1111122 
TCOON,ioos:station:TCOON:127:1,2017-07-03T12:30:00Z,28.2598,-96.7737,0.0,10.8,1111122 
TCOON,ioos:station:TCOON:127:1,2017-07-03T13:30:00Z,28.2598,-96.7737,0.0,10.4,1111122 
TCOON,ioos:station:TCOON:127:1,2017-07-03T14:30:00Z,28.2598,-96.7737,0.0,10.9,1111122 
TCOON,ioos:station:TCOON:127:1,2017-07-03T15:30:00Z,28.2598,-96.7737,0.0,11.4,1111122 
TCOON,ioos:station:TCOON:127:1,2017-07-03T16:30:00Z,28.2598,-96.7737,0.0,11.6,1111122 
TCOON,ioos:station:TCOON:127:1,2017-07-03T17:30:00Z,28.2598,-96.7737,0.0,11.7,1111122 
TCOON,ioos:station:TCOON:127:1,2017-07-03T18:30:00Z,28.2598,-96.7737,0.0,12.1,1111122 
TCOON,ioos:station:TCOON:127:1,2017-07-03T19:30:00Z,28.2598,-96.7737,0.0,12.1,1111122 
TCOON,ioos:station:TCOON:127:1,2017-07-03T20:30:00Z,28.2598,-96.7737,0.0,12.2,1111122 
TCOON,ioos:station:TCOON:127:1,2017-07-03T21:30:00Z,28.2598,-96.7737,0.0,11.9,1111122 
TCOON,ioos:station:TCOON:127:1,2017-07-03T22:30:00Z,28.2598,-96.7737,0.0,12.1,1111122 
TCOON,ioos:station:TCOON:127:1,2017-07-03T23:30:00Z,28.2598,-96.7737,0.0,12.2,1111122 
TCOON,ioos:station:TCOON:127:1,2017-07-04T00:30:00Z,28.2598,-96.7737,0.0,11.9,1111122 
TCOON,ioos:station:TCOON:127:1,2017-07-04T01:30:00Z,28.2598,-96.7737,0.0,11.3,1111122 
TCOON,ioos:station:TCOON:127:1,2017-07-04T02:30:00Z,28.2598,-96.7737,0.0,11.0,1111122 
TCOON,ioos:station:TCOON:127:1,2017-07-04T03:30:00Z,28.2598,-96.7737,0.0,11.2,1111122 
TCOON,ioos:station:TCOON:127:1,2017-07-04T04:30:00Z,28.2598,-96.7737,0.0,11.0,1111122 
TCOON,ioos:station:TCOON:127:1,2017-07-04T05:30:00Z,28.2598,-96.7737,0.0,10.7,1111122 
TCOON,ioos:station:TCOON:127:1,2017-07-04T06:30:00Z,28.2598,-96.7737,0.0,10.6,1111122 
TCOON,ioos:station:TCOON:127:1,2017-07-04T07:30:00Z,28.2598,-96.7737,0.0,10.8,1111122 
TCOON,ioos:station:TCOON:127:1,2017-07-04T08:30:00Z,28.2598,-96.7737,0.0,11.7,1111122 
TCOON,ioos:station:TCOON:127:1,2017-07-04T09:30:00Z,28.2598,-96.7737,0.0,11.8,1111122 
TCOON,ioos:station:TCOON:127:1,2017-07-04T10:30:00Z,28.2598,-96.7737,0.0,12.0,1111122 
TCOON,ioos:station:TCOON:127:1,2017-07-04T11:30:00Z,28.2598,-96.7737,0.0,11.4,1111122 
TCOON,ioos:station:TCOON:127:1,2017-07-04T12:30:00Z,28.2598,-96.7737,0.0,11.1,1111122 
TCOON,ioos:station:TCOON:127:1,2017-07-04T13:30:00Z,28.2598,-96.7737,0.0,11.1,1111122 
TCOON,ioos:station:TCOON:127:1,2017-07-04T14:30:00Z,28.2598,-96.7737,0.0,11.5,1111122 
TCOON,ioos:station:TCOON:127:1,2017-07-04T15:30:00Z,28.2598,-96.7737,0.0,11.8,1111122 
TCOON,ioos:station:TCOON:127:1,2017-07-04T16:30:00Z,28.2598,-96.7737,0.0,11.9,1111122 
TCOON,ioos:station:TCOON:127:1,2017-07-04T17:30:00Z,28.2598,-96.7737,0.0,12.1,1111122 
TCOON,ioos:station:TCOON:127:1,2017-07-04T18:30:00Z,28.2598,-96.7737,0.0,12.3,1111122 
TCOON,ioos:station:TCOON:127:1,2017-07-04T19:30:00Z,28.2598,-96.7737,0.0,12.2,1111122 
TCOON,ioos:station:TCOON:127:1,2017-07-04T20:30:00Z,28.2598,-96.7737,0.0,12.0,1111122 
TCOON,ioos:station:TCOON:127:1,2017-07-04T21:30:00Z,28.2598,-96.7737,0.0,12.1,1111122 
TCOON,ioos:station:TCOON:127:1,2017-07-04T22:30:00Z,28.2598,-96.7737,0.0,11.7,1111122 
TCOON,ioos:station:TCOON:127:1,2017-07-04T23:30:00Z,28.2598,-96.7737,0.0,11.5,1111122 
TCOON,ioos:station:TCOON:127:1,2017-07-05T00:30:00Z,28.2598,-96.7737,0.0,11.5,1111122 
TCOON,ioos:station:TCOON:127:1,2017-07-05T01:30:00Z,28.2598,-96.7737,0.0,11.4,1111122 
TCOON,ioos:station:TCOON:127:1,2017-07-05T02:30:00Z,28.2598,-96.7737,0.0,11.3,1111122 
TCOON,ioos:station:TCOON:127:1,2017-07-05T03:30:00Z,28.2598,-96.7737,0.0,11.2,1111122 
TCOON,ioos:station:TCOON:127:1,2017-07-05T04:30:00Z,28.2598,-96.7737,0.0,10.9,1111122 
TCOON,ioos:station:TCOON:127:1,2017-07-05T05:30:00Z,28.2598,-96.7737,0.0,11.0,1111122 
TCOON,ioos:station:TCOON:127:1,2017-07-05T06:30:00Z,28.2598,-96.7737,0.0,10.8,1111122 
TCOON,ioos:station:TCOON:127:1,2017-07-05T07:30:00Z,28.2598,-96.7737,0.0,10.8,1111122 
TCOON,ioos:station:TCOON:127:1,2017-07-05T08:30:00Z,28.2598,-96.7737,0.0,11.2,1111122 
TCOON,ioos:station:TCOON:127:1,2017-07-05T09:30:00Z,28.2598,-96.7737,0.0,10.6,1111122 
TCOON,ioos:station:TCOON:127:1,2017-07-05T10:30:00Z,28.2598,-96.7737,0.0,10.6,1111122 
TCOON,ioos:station:TCOON:127:1,2017-07-05T11:30:00Z,28.2598,-96.7737,0.0,10.6,1111122 
TCOON,ioos:station:TCOON:127:1,2017-07-05T12:30:00Z,28.2598,-96.7737,0.0,10.9,1111122 
TCOON,ioos:station:TCOON:127:1,2017-07-05T13:30:00Z,28.2598,-96.7737,0.0,10.6,1111122 
TCOON,ioos:station:TCOON:127:1,2017-07-05T14:30:00Z,28.2598,-96.7737,0.0,10.3,1111122 
TCOON,ioos:station:TCOON:127:1,2017-07-05T15:30:00Z,28.2598,-96.7737,0.0,10.5,1111122 
TCOON,ioos:station:TCOON:127:1,2017-07-05T16:30:00Z,28.2598,-96.7737,0.0,10.4,1111122 
TCOON,ioos:station:TCOON:127:1,2017-07-05T17:30:00Z,28.2598,-96.7737,0.0,10.3,1111122 
TCOON,ioos:station:TCOON:127:1,2017-07-05T18:30:00Z,28.2598,-96.7737,0.0,10.4,1111122 
TCOON,ioos:station:TCOON:127:1,2017-07-05T19:30:00Z,28.2598,-96.7737,0.0,10.4,1111122 
TCOON,ioos:station:TCOON:127:1,2017-07-05T20:30:00Z,28.2598,-96.7737,0.0,10.4,1111122 
TCOON,ioos:station:TCOON:127:1,2017-07-05T21:30:00Z,28.2598,-96.7737,0.0,10.6,1111122 
TCOON,ioos:station:TCOON:127:1,2017-07-05T22:30:00Z,28.2598,-96.7737,0.0,10.2,1111122 
TCOON,ioos:station:TCOON:127:1,2017-07-05T23:30:00Z,28.2598,-96.7737,0.0,10.7,1111122 
TCOON,ioos:station:TCOON:127:1,2017-07-06T00:30:00Z,28.2598,-96.7737,0.0,10.7,1111122 
TCOON,ioos:station:TCOON:127:1,2017-07-06T01:30:00Z,28.2598,-96.7737,0.0,10.7,1111122 
TCOON,ioos:station:TCOON:127:1,2017-07-06T02:30:00Z,28.2598,-96.7737,0.0,10.6,1111122 
TCOON,ioos:station:TCOON:127:1,2017-07-06T03:30:00Z,28.2598,-96.7737,0.0,10.9,1111122 
TCOON,ioos:station:TCOON:127:1,2017-07-06T04:30:00Z,28.2598,-96.7737,0.0,10.4,1111122 
TCOON,ioos:station:TCOON:127:1,2017-07-06T05:30:00Z,28.2598,-96.7737,0.0,10.4,1111122 
TCOON,ioos:station:TCOON:127:1,2017-07-06T06:30:00Z,28.2598,-96.7737,0.0,10.0,1111122 
TCOON,ioos:station:TCOON:127:1,2017-07-06T07:30:00Z,28.2598,-96.7737,0.0,9.8,1111122 
TCOON,ioos:station:TCOON:127:1,2017-07-06T08:30:00Z,28.2598,-96.7737,0.0,9.9,1111122 
TCOON,ioos:station:TCOON:127:1,2017-07-06T09:30:00Z,28.2598,-96.7737,0.0,9.8,1111122 
TCOON,ioos:station:TCOON:127:1,2017-07-06T10:30:00Z,28.2598,-96.7737,0.0,9.7,1111122 
TCOON,ioos:station:TCOON:127:1,2017-07-06T11:30:00Z,28.2598,-96.7737,0.0,9.4,1111122 
TCOON,ioos:station:TCOON:127:1,2017-07-06T12:30:00Z,28.2598,-96.7737,0.0,9.6,1111122 
TCOON,ioos:station:TCOON:127:1,2017-07-06T13:30:00Z,28.2598,-96.7737,0.0,9.6,1111122 
TCOON,ioos:station:TCOON:127:1,2017-07-06T14:30:00Z,28.2598,-96.7737,0.0,9.6,1111122 
TCOON,ioos:station:TCOON:127:1,2017-07-10T18:30:00Z,28.2598,-96.7737,0.0,12.0,1111122 
TCOON,ioos:station:TCOON:127:1,2017-07-10T19:30:00Z,28.2598,-96.7737,0.0,11.9,1111122 
TCOON,ioos:station:TCOON:127:1,2017-07-10T20:30:00Z,28.2598,-96.7737,0.0,11.9,1111122 
TCOON,ioos:station:TCOON:127:1,2017-07-10T21:30:00Z,28.2598,-96.7737,0.0,12.0,1111122 
TCOON,ioos:station:TCOON:127:1,2017-07-10T22:30:00Z,28.2598,-96.7737,0.0,12.1,1111122 
TCOON,ioos:station:TCOON:127:1,2017-07-10T23:30:00Z,28.2598,-96.7737,0.0,12.2,1111122 
TCOON,ioos:station:TCOON:127:1,2017-07-11T00:30:00Z,28.2598,-96.7737,0.0,12.5,1111122 
TCOON,ioos:station:TCOON:127:1,2017-07-11T01:30:00Z,28.2598,-96.7737,0.0,12.9,1111122 
TCOON,ioos:station:TCOON:127:1,2017-07-11T02:30:00Z,28.2598,-96.7737,0.0,14.0,1111122 
TCOON,ioos:station:TCOON:127:1,2017-07-11T03:30:00Z,28.2598,-96.7737,0.0,14.0,1111122 
TCOON,ioos:station:TCOON:127:1,2017-07-11T04:30:00Z,28.2598,-96.7737,0.0,14.6,1111122 
TCOON,ioos:station:TCOON:127:1,2017-07-11T05:30:00Z,28.2598,-96.7737,0.0,14.4,1111122 
TCOON,ioos:station:TCOON:127:1,2017-07-11T06:30:00Z,28.2598,-96.7737,0.0,14.4,1111122 
TCOON,ioos:station:TCOON:127:1,2017-07-11T07:30:00Z,28.2598,-96.7737,0.0,14.2,1111122 
TCOON,ioos:station:TCOON:127:1,2017-07-11T08:30:00Z,28.2598,-96.7737,0.0,13.9,1111122 
TCOON,ioos:station:TCOON:127:1,2017-07-11T09:30:00Z,28.2598,-96.7737,0.0,13.6,1111122 
TCOON,ioos:station:TCOON:127:1,2017-07-11T10:30:00Z,28.2598,-96.7737,0.0,13.4,1111122 
TCOON,ioos:station:TCOON:127:1,2017-07-11T11:30:00Z,28.2598,-96.7737,0.0,13.1,1111122 
TCOON,ioos:station:TCOON:127:1,2017-07-11T12:30:00Z,28.2598,-96.7737,0.0,13.0,1111122 
TCOON,ioos:station:TCOON:127:1,2017-07-11T13:30:00Z,28.2598,-96.7737,0.0,12.9,1111122 
TCOON,ioos:station:TCOON:127:1,2017-07-11T14:30:00Z,28.2598,-96.7737,0.0,13.0,1111122 
TCOON,ioos:station:TCOON:127:1,2017-07-11T15:30:00Z,28.2598,-96.7737,0.0,13.8,1111122 
TCOON,ioos:station:TCOON:127:1,2017-07-11T16:30:00Z,28.2598,-96.7737,0.0,14.1,1111122 
TCOON,ioos:station:TCOON:127:1,2017-07-11T17:30:00Z,28.2598,-96.7737,0.0,14.3,1111122 
TCOON,ioos:station:TCOON:127:1,2017-07-11T18:30:00Z,28.2598,-96.7737,0.0,14.7,1111122 
TCOON,ioos:station:TCOON:127:1,2017-07-11T19:30:00Z,28.2598,-96.7737,0.0,15.1,1111122 
TCOON,ioos:station:TCOON:127:1,2017-07-11T20:30:00Z,28.2598,-96.7737,0.0,15.6,1111122 
TCOON,ioos:station:TCOON:127:1,2017-07-11T21:30:00Z,28.2598,-96.7737,0.0,15.3,1111122 
TCOON,ioos:station:TCOON:127:1,2017-07-11T22:30:00Z,28.2598,-96.7737,0.0,15.5,1111122 
TCOON,ioos:station:TCOON:127:1,2017-07-11T23:30:00Z,28.2598,-96.7737,0.0,16.0,1111122 
TCOON,ioos:station:TCOON:127:1,2017-07-12T00:30:00Z,28.2598,-96.7737,0.0,16.4,1111122 
TCOON,ioos:station:TCOON:127:1,2017-07-12T01:30:00Z,28.2598,-96.7737,0.0,16.6,1111122 
TCOON,ioos:station:TCOON:127:1,2017-07-12T02:30:00Z,28.2598,-96.7737,0.0,16.8,1111122 
TCOON,ioos:station:TCOON:127:1,2017-07-12T03:30:00Z,28.2598,-96.7737,0.0,16.8,1111122 
TCOON,ioos:station:TCOON:127:1,2017-07-12T04:30:00Z,28.2598,-96.7737,0.0,16.9,1111122 
TCOON,ioos:station:TCOON:127:1,2017-07-12T05:30:00Z,28.2598,-96.7737,0.0,17.0,1111122 
TCOON,ioos:station:TCOON:127:1,2017-07-12T06:30:00Z,28.2598,-96.7737,0.0,17.2,1111122 
TCOON,ioos:station:TCOON:127:1,2017-07-12T07:30:00Z,28.2598,-96.7737,0.0,17.3,1111122 
TCOON,ioos:station:TCOON:127:1,2017-07-12T08:30:00Z,28.2598,-96.7737,0.0,17.1,1111122 
TCOON,ioos:station:TCOON:127:1,2017-07-12T09:30:00Z,28.2598,-96.7737,0.0,16.0,1111122 
TCOON,ioos:station:TCOON:127:1,2017-07-12T10:30:00Z,28.2598,-96.7737,0.0,16.2,1111122 
TCOON,ioos:station:TCOON:127:1,2017-07-12T11:30:00Z,28.2598,-96.7737,0.0,16.6,1111122 
TCOON,ioos:station:TCOON:127:1,2017-07-12T12:30:00Z,28.2598,-96.7737,0.0,16.7,1111122 
TCOON,ioos:station:TCOON:127:1,2017-07-12T13:30:00Z,28.2598,-96.7737,0.0,16.8,1111122 
TCOON,ioos:station:TCOON:127:1,2017-07-12T14:30:00Z,28.2598,-96.7737,0.0,16.8,1111122 
TCOON,ioos:station:TCOON:127:1,2017-07-12T15:30:00Z,28.2598,-96.7737,0.0,16.8,1111122 
TCOON,ioos:station:TCOON:127:1,2017-07-12T16:30:00Z,28.2598,-96.7737,0.0,16.6,1111122 
TCOON,ioos:station:TCOON:127:1,2017-07-12T17:30:00Z,28.2598,-96.7737,0.0,16.7,1111122 
TCOON,ioos:station:TCOON:127:1,2017-07-12T18:30:00Z,28.2598,-96.7737,0.0,16.6,1111122 
TCOON,ioos:station:TCOON:127:1,2017-07-12T19:30:00Z,28.2598,-96.7737,0.0,16.8,1111122 
TCOON,ioos:station:TCOON:127:1,2017-07-12T20:30:00Z,28.2598,-96.7737,0.0,16.8,1111122 
TCOON,ioos:station:TCOON:127:1,2017-07-12T21:30:00Z,28.2598,-96.7737,0.0,17.0,1111122 
TCOON,ioos:station:TCOON:127:1,2017-07-12T22:30:00Z,28.2598,-96.7737,0.0,17.0,1111122 
TCOON,ioos:station:TCOON:127:1,2017-07-13T00:30:00Z,28.2598,-96.7737,0.0,17.0,1111122 
TCOON,ioos:station:TCOON:127:1,2017-07-13T01:30:00Z,28.2598,-96.7737,0.0,17.1,1111122 
TCOON,ioos:station:TCOON:127:1,2017-07-13T02:30:00Z,28.2598,-96.7737,0.0,17.6,1111122 
TCOON,ioos:station:TCOON:127:1,2017-07-13T03:30:00Z,28.2598,-96.7737,0.0,17.1,1111122 
TCOON,ioos:station:TCOON:127:1,2017-07-13T04:30:00Z,28.2598,-96.7737,0.0,17.2,1111122 
TCOON,ioos:station:TCOON:127:1,2017-07-13T05:30:00Z,28.2598,-96.7737,0.0,17.3,1111122 
TCOON,ioos:station:TCOON:127:1,2017-07-13T06:30:00Z,28.2598,-96.7737,0.0,17.2,1111122 
TCOON,ioos:station:TCOON:127:1,2017-07-13T07:30:00Z,28.2598,-96.7737,0.0,17.0,1111122 
TCOON,ioos:station:TCOON:127:1,2017-07-13T08:30:00Z,28.2598,-96.7737,0.0,17.0,1111122 
TCOON,ioos:station:TCOON:127:1,2017-07-13T09:30:00Z,28.2598,-96.7737,0.0,17.3,1111122 
TCOON,ioos:station:TCOON:127:1,2017-07-13T10:30:00Z,28.2598,-96.7737,0.0,17.4,1111122 
TCOON,ioos:station:TCOON:127:1,2017-07-13T11:30:00Z,28.2598,-96.7737,0.0,17.5,1111122 
TCOON,ioos:station:TCOON:127:1,2017-07-13T12:30:00Z,28.2598,-96.7737,0.0,17.5,1111122 
TCOON,ioos:station:TCOON:127:1,2017-07-13T13:30:00Z,28.2598,-96.7737,0.0,17.2,1111122 
TCOON,ioos:station:TCOON:127:1,2017-07-13T14:30:00Z,28.2598,-96.7737,0.0,17.0,1111122 
TCOON,ioos:station:TCOON:127:1,2017-07-13T15:30:00Z,28.2598,-96.7737,0.0,17.0,1111122 
TCOON,ioos:station:TCOON:127:1,2017-07-13T16:30:00Z,28.2598,-96.7737,0.0,16.8,1111122 
TCOON,ioos:station:TCOON:127:1,2017-07-13T17:30:00Z,28.2598,-96.7737,0.0,16.9,1111122 
TCOON,ioos:station:TCOON:127:1,2017-07-13T18:30:00Z,28.2598,-96.7737,0.0,16.9,1111122 
TCOON,ioos:station:TCOON:127:1,2017-07-13T19:30:00Z,28.2598,-96.7737,0.0,17.0,1111122 
TCOON,ioos:station:TCOON:127:1,2017-07-13T20:30:00Z,28.2598,-96.7737,0.0,17.2,1111122 
TCOON,ioos:station:TCOON:127:1,2017-07-13T21:30:00Z,28.2598,-96.7737,0.0,17.3,1111122 
TCOON,ioos:station:TCOON:127:1,2017-07-13T22:30:00Z,28.2598,-96.7737,0.0,17.3,1111122 
TCOON,ioos:station:TCOON:127:1,2017-07-13T23:30:00Z,28.2598,-96.7737,0.0,17.2,1111122 
TCOON,ioos:station:TCOON:127:1,2017-07-14T00:30:00Z,28.2598,-96.7737,0.0,17.3,1111122 
TCOON,ioos:station:TCOON:127:1,2017-07-14T01:30:00Z,28.2598,-96.7737,0.0,17.6,1111122 
TCOON,ioos:station:TCOON:127:1,2017-07-14T02:30:00Z,28.2598,-96.7737,0.0,17.7,1111122 
TCOON,ioos:station:TCOON:127:1,2017-07-14T03:30:00Z,28.2598,-96.7737,0.0,17.7,1111122 
TCOON,ioos:station:TCOON:127:1,2017-07-14T04:30:00Z,28.2598,-96.7737,0.0,17.6,1111122 
TCOON,ioos:station:TCOON:127:1,2017-07-14T05:30:00Z,28.2598,-96.7737,0.0,17.6,1111122 
TCOON,ioos:station:TCOON:127:1,2017-07-14T06:30:00Z,28.2598,-96.7737,0.0,16.4,1111122 
TCOON,ioos:station:TCOON:127:1,2017-07-14T07:30:00Z,28.2598,-96.7737,0.0,17.5,1111122 
TCOON,ioos:station:TCOON:127:1,2017-07-14T08:30:00Z,28.2598,-96.7737,0.0,17.4,1111122 
TCOON,ioos:station:TCOON:127:1,2017-07-14T09:30:00Z,28.2598,-96.7737,0.0,17.5,1111122 
TCOON,ioos:station:TCOON:127:1,2017-07-14T10:30:00Z,28.2598,-96.7737,0.0,17.4,1111122 
TCOON,ioos:station:TCOON:127:1,2017-07-14T11:30:00Z,28.2598,-96.7737,0.0,17.4,1111122 
TCOON,ioos:station:TCOON:127:1,2017-07-14T12:30:00Z,28.2598,-96.7737,0.0,17.5,1111122 
TCOON,ioos:station:TCOON:127:1,2017-07-14T13:30:00Z,28.2598,-96.7737,0.0,17.2,1111122 
TCOON,ioos:station:TCOON:127:1,2017-07-14T14:30:00Z,28.2598,-96.7737,0.0,16.7,1111122 
TCOON,ioos:station:TCOON:127:1,2017-07-14T15:30:00Z,28.2598,-96.7737,0.0,17.4,1111122 
TCOON,ioos:station:TCOON:127:1,2017-07-14T16:30:00Z,28.2598,-96.7737,0.0,17.2,1111122 
TCOON,ioos:station:TCOON:127:1,2017-07-14T17:30:00Z,28.2598,-96.7737,0.0,15.7,1111122 
TCOON,ioos:station:TCOON:127:1,2017-07-14T18:30:00Z,28.2598,-96.7737,0.0,14.4,1111122 
TCOON,ioos:station:TCOON:127:1,2017-07-14T19:30:00Z,28.2598,-96.7737,0.0,15.3,1111122 
TCOON,ioos:station:TCOON:127:1,2017-07-14T20:30:00Z,28.2598,-96.7737,0.0,15.7,1111122 
TCOON,ioos:station:TCOON:127:1,2017-07-14T21:30:00Z,28.2598,-96.7737,0.0,16.3,1111122 
TCOON,ioos:station:TCOON:127:1,2017-07-14T22:30:00Z,28.2598,-96.7737,0.0,17.1,1111122 
TCOON,ioos:station:TCOON:127:1,2017-07-14T23:30:00Z,28.2598,-96.7737,0.0,17.2,1111122 
TCOON,ioos:station:TCOON:127:1,2017-07-15T00:30:00Z,28.2598,-96.7737,0.0,17.4,1111122 
TCOON,ioos:station:TCOON:127:1,2017-07-15T01:30:00Z,28.2598,-96.7737,0.0,17.6,1111122 
TCOON,ioos:station:TCOON:127:1,2017-07-15T02:30:00Z,28.2598,-96.7737,0.0,17.6,1111122 
TCOON,ioos:station:TCOON:127:1,2017-07-15T03:30:00Z,28.2598,-96.7737,0.0,17.7,1111122 
TCOON,ioos:station:TCOON:127:1,2017-07-15T04:30:00Z,28.2598,-96.7737,0.0,17.3,1111122 
TCOON,ioos:station:TCOON:127:1,2017-07-15T05:30:00Z,28.2598,-96.7737,0.0,16.9,1111122 
TCOON,ioos:station:TCOON:127:1,2017-07-15T06:30:00Z,28.2598,-96.7737,0.0,16.6,1111122 
TCOON,ioos:station:TCOON:127:1,2017-07-15T07:30:00Z,28.2598,-96.7737,0.0,16.7,1111122 
TCOON,ioos:station:TCOON:127:1,2017-07-15T08:30:00Z,28.2598,-96.7737,0.0,16.7,1111122 
TCOON,ioos:station:TCOON:127:1,2017-07-15T09:30:00Z,28.2598,-96.7737,0.0,16.4,1111122 
TCOON,ioos:station:TCOON:127:1,2017-07-15T10:30:00Z,28.2598,-96.7737,0.0,16.5,1111122 
TCOON,ioos:station:TCOON:127:1,2017-07-15T11:30:00Z,28.2598,-96.7737,0.0,16.2,1111122 
TCOON,ioos:station:TCOON:127:1,2017-07-15T12:30:00Z,28.2598,-96.7737,0.0,16.0,1111122 
TCOON,ioos:station:TCOON:127:1,2017-07-15T13:30:00Z,28.2598,-96.7737,0.0,15.8,1111122 
TCOON,ioos:station:TCOON:127:1,2017-07-15T14:30:00Z,28.2598,-96.7737,0.0,15.7,1111122 
TCOON,ioos:station:TCOON:127:1,2017-07-15T15:30:00Z,28.2598,-96.7737,0.0,15.6,1111122 
TCOON,ioos:station:TCOON:127:1,2017-07-15T16:30:00Z,28.2598,-96.7737,0.0,15.2,1111122 
TCOON,ioos:station:TCOON:127:1,2017-07-15T17:30:00Z,28.2598,-96.7737,0.0,14.9,1111122 
TCOON,ioos:station:TCOON:127:1,2017-07-15T18:30:00Z,28.2598,-96.7737,0.0,15.2,1111122 
TCOON,ioos:station:TCOON:127:1,2017-07-15T19:30:00Z,28.2598,-96.7737,0.0,14.7,1111122 
TCOON,ioos:station:TCOON:127:1,2017-07-15T20:30:00Z,28.2598,-96.7737,0.0,14.0,1111122 
TCOON,ioos:station:TCOON:127:1,2017-07-15T21:30:00Z,28.2598,-96.7737,0.0,14.2,1111122 
TCOON,ioos:station:TCOON:127:1,2017-07-15T22:30:00Z,28.2598,-96.7737,0.0,14.5,1111122 
TCOON,ioos:station:TCOON:127:1,2017-07-15T23:30:00Z,28.2598,-96.7737,0.0,14.8,1111122 
TCOON,ioos:station:TCOON:127:1,2017-07-16T00:30:00Z,28.2598,-96.7737,0.0,14.8,1111122 
TCOON,ioos:station:TCOON:127:1,2017-07-16T01:30:00Z,28.2598,-96.7737,0.0,14.6,1111122 
TCOON,ioos:station:TCOON:127:1,2017-07-16T02:30:00Z,28.2598,-96.7737,0.0,15.0,1111122 
TCOON,ioos:station:TCOON:127:1,2017-07-16T03:30:00Z,28.2598,-96.7737,0.0,15.3,1111122 
TCOON,ioos:station:TCOON:127:1,2017-07-16T04:30:00Z,28.2598,-96.7737,0.0,15.3,1111122 
TCOON,ioos:station:TCOON:127:1,2017-07-16T05:30:00Z,28.2598,-96.7737,0.0,15.1,1111122 
TCOON,ioos:station:TCOON:127:1,2017-07-16T06:30:00Z,28.2598,-96.7737,0.0,15.1,1111122 
TCOON,ioos:station:TCOON:127:1,2017-07-16T07:30:00Z,28.2598,-96.7737,0.0,15.0,1111122 
TCOON,ioos:station:TCOON:127:1,2017-07-16T08:30:00Z,28.2598,-96.7737,0.0,15.1,1111122 
TCOON,ioos:station:TCOON:127:1,2017-07-16T09:30:00Z,28.2598,-96.7737,0.0,15.4,1111122 
TCOON,ioos:station:TCOON:127:1,2017-07-16T10:30:00Z,28.2598,-96.7737,0.0,15.6,1111122 
TCOON,ioos:station:TCOON:127:1,2017-07-16T11:30:00Z,28.2598,-96.7737,0.0,15.0,1111122 
TCOON,ioos:station:TCOON:127:1,2017-07-16T12:30:00Z,28.2598,-96.7737,0.0,15.1,1111122 
TCOON,ioos:station:TCOON:127:1,2017-07-16T13:30:00Z,28.2598,-96.7737,0.0,15.2,1111122 